This is the latest recevied weather packets stored in our database for station/object YF9UAG-16. If no packets are shown the sender has not sent any weather packets the latest 10 day(s).
| Time | Temp. | Humidity | Pressure | Rain* | Wind** | Luminosity | Snow |
|---|---|---|---|---|---|---|---|
| 1777973818 | 28.33° C | 76% | 1008 hPa | - | - | 0 W/m² | - |
| 1777973496 | 28.33° C | 78% | 1008 hPa | - | - | 0 W/m² | - |
| 1777973174 | 28.33° C | 76% | 1008 hPa | - | - | 0 W/m² | - |
| 1777972852 | 27.78° C | 74% | 1008 hPa | - | - | 0 W/m² | - |
| 1777972530 | 28.33° C | 77% | 1008 hPa | - | - | 0 W/m² | - |
| 1777972208 | 28.33° C | 76% | 1008 hPa | - | - | 0 W/m² | - |
| 1777971886 | 27.78° C | 74% | 1008 hPa | - | - | 0 W/m² | - |
| 1777971564 | 28.33° C | 77% | 1008 hPa | - | - | 0 W/m² | - |
| 1777971242 | 28.89° C | 75% | 1008 hPa | - | - | 0 W/m² | - |
| 1777970920 | 28.33° C | 73% | 1008 hPa | - | - | 0 W/m² | - |
| 1777970598 | 28.89° C | 77% | 1008 hPa | - | - | 0 W/m² | - |
| 1777970276 | 28.33° C | 77% | 1007 hPa | - | - | 0 W/m² | - |
| 1777969954 | 28.33° C | 74% | 1007 hPa | - | - | 0 W/m² | - |
| 1777969632 | 28.33° C | 76% | 1007 hPa | - | - | 0 W/m² | - |
| 1777969310 | 28.33° C | 77% | 1007 hPa | - | - | 0 W/m² | - |
| 1777968988 | 28.33° C | 77% | 1007 hPa | - | - | 0 W/m² | - |
| 1777968666 | 28.33° C | 75% | 1007 hPa | - | - | 0 W/m² | - |
| 1777968344 | 28.33° C | 75% | 1007 hPa | - | - | 0 W/m² | - |
| 1777968022 | 28.89° C | 78% | 1007 hPa | - | - | 0 W/m² | - |
| 1777967700 | 28.89° C | 77% | 1007 hPa | - | - | 0 W/m² | - |
| 1777967378 | 28.89° C | 76% | 1007 hPa | - | - | 0 W/m² | - |
| 1777967056 | 29.44° C | 72% | 1007 hPa | - | - | 0 W/m² | - |
| 1777966734 | 29.44° C | 68% | 1007 hPa | - | - | 0 W/m² | - |
| 1777966412 | 30° C | 73% | 1007 hPa | - | - | 0 W/m² | - |
| 1777966090 | 30° C | 69% | 1007 hPa | - | - | 0 W/m² | - |
* Rain since midnight (hover to see other rain measurements)
** Current wind speed in m/s (hover to see current wind gust speed)